GW5004 Weather Reports


time (UTC)temp
C
wind
direction
speed
KPH
gust
KPH
rain 1hr
cm
rain 24hr
cm
rain mn
cm
humidity
%
barometer
mb
20260504174208 12 304 24.1 33.8 0.00 0.00 0.00 34 1016.2
20260504173704 12 283 19.3 24.1 0.00 0.00 0.00 37 1016.2
20260504173202 12 280 14.5 16.1 0.00 0.00 0.00 37 1016.3
20260504172658 12 269 22.5 25.7 0.00 0.00 0.00 39 1016.4
20260504172154 12 327 22.5 27.4 0.00 0.00 0.00 38 1016.2
20260504171651 12 295 29.0 37.0 0.00 0.00 0.00 38 1016.3
20260504171148 12 292 22.5 25.7 0.00 0.00 0.00 39 1016.3
20260504170644 12 319 16.1 24.1 0.00 0.00 0.00 41 1016.3
20260504170142 11 272 12.9 16.1 0.00 0.00 0.00 43 1016.6
20260504151028 9 225 12.9 16.1 0.00 0.00 0.00 54 1016.7
20260504150525 9 212 9.7 11.3 0.00 0.00 0.00 55 1016.7
20260504140956 8 221 8.0 9.7 0.00 0.00 0.00 60 1016.6
20260504140453 8 216 4.8 6.4 0.00 0.00 0.00 60 1016.7
20260504130417 7 246 4.8 6.4 0.00 0.00 0.00 62 1016.8
20260504110304 7 300 3.2 3.2 0.00 0.00 0.00 63 1017.1
20260504100222 7 351 9.7 12.9 0.00 0.00 0.00 60 1017.2
20260504081615 10 12 17.7 20.9 0.00 0.00 0.00 49 1016.3
20260504081111 10 13 17.7 17.7 0.00 0.00 0.00 48 1016.4
20260504080608 10 4 20.9 24.1 0.00 0.00 0.00 47 1016.2
20260504080104 10 12 19.3 22.5 0.00 0.00 0.00 47 1016.0
20260504050421 13 338 17.7 17.7 0.00 0.00 0.00 38 1010.9
20260504045918 13 341 16.1 20.9 0.00 0.00 0.00 37 1010.7
20260504045413 14 3 12.9 14.5 0.00 0.00 0.00 37 1010.5
20260504044910 13 8 16.1 17.7 0.00 0.00 0.00 37 1010.2
20260504044408 13 7 16.1 17.7 0.00 0.00 0.00 37 1010.3
20260504043905 14 9 11.3 12.9 0.00 0.00 0.00 36 1010.2
20260504043401 14 4 14.5 17.7 0.00 0.00 0.00 36 1010.3
20260504042859 14 10 8.0 9.7 0.00 0.00 0.00 37 1010.0
20260504042355 14 10 11.3 12.9 0.00 0.00 0.00 36 1009.9
20260504041852 14 3 9.7 12.9 0.00 0.00 0.00 36 1010.0
20260504041348 15 1 14.5 16.1 0.00 0.00 0.00 35 1009.9
20260504040844 15 3 17.7 20.9 0.00 0.00 0.00 35 1009.5
20260504040342 15 354 17.7 22.5 0.00 0.00 0.00 34 1009.6
20260504035837 15 3 16.1 16.1 0.00 0.00 0.00 34 1009.4
20260504035336 14 358 11.3 11.3 0.00 0.00 0.00 33 1009.4
20260504034832 15 5 9.7 11.3 0.00 0.00 0.00 33 1009.4
20260504034330 15 0 12.9 16.1 0.00 0.00 0.00 32 1009.3
20260504033826 16 11 16.1 17.7 0.00 0.00 0.00 31 1009.1
20260504033325 16 357 19.3 22.5 0.00 0.00 0.00 29 1009.0
20260504032821 16 341 11.3 11.3 0.00 0.00 0.00 28 1008.8
20260504032318 16 7 12.9 12.9 0.00 0.00 0.00 28 1008.2
20260504031815 16 351 12.9 14.5 0.00 0.00 0.00 27 1008.4
20260504031312 16 343 19.3 22.5 0.00 0.00 0.00 26 1008.4
20260504030808 15 334 8.0 9.7 0.00 0.00 0.00 28 1008.3
20260504030306 15 336 8.0 9.7 0.00 0.00 0.00 29 1008.0
20260504025801 15 329 6.4 6.4 0.00 0.00 0.00 29 1008.0
20260504025259 15 338 6.4 6.4 0.00 0.00 0.00 28 1008.0
20260504024755 16 345 8.0 9.7 0.00 0.00 0.00 28 1008.0
20260504024252 15 347 6.4 6.4 0.00 0.00 0.00 29 1008.0
20260504023749 16 353 6.4 6.4 0.00 0.00 0.00 28 1008.1
20260504023245 17 354 6.4 6.4 0.00 0.00 0.00 27 1008.0
20260504022741 17 354 8.0 9.7 0.00 0.00 0.00 26 1007.9
20260504022238 18 355 6.4 6.4 0.00 0.00 0.00 25 1008.0
20260504021735 18 355 9.7 9.7 0.00 0.00 0.00 24 1008.1
20260504021232 19 343 9.7 11.3 0.00 0.00 0.00 25 1008.1
20260504020729 19 356 9.7 11.3 0.00 0.00 0.00 24 1008.0
20260504020225 20 2 9.7 11.3 0.00 0.00 0.00 23 1007.9
20260504015722 20 359 12.9 14.5 0.00 0.00 0.00 22 1007.9
20260504015218 21 355 12.9 14.5 0.00 0.00 0.00 22 1007.9
20260504014714 21 347 12.9 14.5 0.00 0.00 0.00 22 1007.9
20260504014211 21 346 16.1 17.7 0.00 0.00 0.00 22 1008.0
20260504013709 21 334 14.5 16.1 0.00 0.00 0.00 21 1007.8
20260504013206 22 345 9.7 11.3 0.00 0.00 0.00 22 1007.9
20260504012702 22 344 9.7 12.9 0.00 0.00 0.00 22 1008.1
20260504012200 22 339 14.5 16.1 0.00 0.00 0.00 21 1007.7
20260504011657 22 311 16.1 17.7 0.00 0.00 0.00 21 1007.9
20260504011153 23 347 14.5 17.7 0.00 0.00 0.00 20 1007.9
20260504010649 23 332 9.7 12.9 0.00 0.00 0.00 20 1008.0
20260504010145 23 318 9.7 12.9 0.00 0.00 0.00 20 1008.0
20260504005642 23 322 17.7 24.1 0.00 0.00 0.00 19 1007.8
20260504005139 23 346 12.9 17.7 0.00 0.00 0.00 20 1008.0
20260504004637 23 287 12.9 14.5 0.00 0.00 0.00 18 1007.8
20260504004134 24 290 8.0 9.7 0.00 0.00 0.00 19 1007.9
20260504003630 23 337 6.4 9.7 0.00 0.00 0.00 18 1008.2
20260504003127 23 258 6.4 6.4 0.00 0.00 0.00 18 1008.2
20260504002624 23 322 9.7 12.9 0.00 0.00 0.00 18 1008.3
20260504002121 24 318 12.9 14.5 0.00 0.00 0.00 18 1008.2
20260504001619 24 301 16.1 20.9 0.00 0.00 0.00 17 1008.4
20260504001114 24 282 12.9 14.5 0.00 0.00 0.00 17 1008.4
20260504000612 24 308 16.1 20.9 0.00 0.00 0.00 18 1008.5
20260504000110 23 283 6.4 9.7 0.00 0.00 0.00 17 1008.3
20260503235608 24 306 9.7 11.3 0.00 0.00 0.00 17 1008.3
20260503235104 24 289 16.1 17.7 0.00 0.00 0.00 17 1008.5
20260503234602 24 297 11.3 12.9 0.00 0.00 0.00 17 1008.7
20260503234100 24 302 9.7 11.3 0.00 0.00 0.00 17 1008.5
20260503233556 24 293 11.3 12.9 0.00 0.00 0.00 17 1008.8
20260503233052 25 251 3.2 3.2 0.00 0.00 0.00 17 1008.4
20260503232549 24 276 11.3 16.1 0.00 0.00 0.00 17 1008.7
20260503232047 24 298 11.3 12.9 0.00 0.00 0.00 17 1008.9
20260503231545 24 246 9.7 12.9 0.00 0.00 0.00 17 1008.9
20260503231041 24 294 14.5 14.5 0.00 0.00 0.00 17 1008.9
20260503230537 25 239 11.3 14.5 0.00 0.00 0.00 17 1008.8
20260503230035 24 236 9.7 12.9 0.00 0.00 0.00 17 1008.9
20260503225532 24 252 17.7 22.5 0.00 0.00 0.00 17 1009.0
20260503225027 24 298 14.5 20.9 0.00 0.00 0.00 17 1009.1
20260503224525 24 251 6.4 6.4 0.00 0.00 0.00 17 1009.0
20260503224022 24 271 9.7 12.9 0.00 0.00 0.00 17 1009.3
20260503223520 24 234 19.3 24.1 0.00 0.00 0.00 17 1009.2
20260503223015 24 279 9.7 11.3 0.00 0.00 0.00 17 1009.1
20260503222514 23 238 6.4 9.7 0.00 0.00 0.00 17 1009.1
20260503222012 24 305 14.5 17.7 0.00 0.00 0.00 17 1009.5
20260503221510 23 287 17.7 20.9 0.00 0.00 0.00 16 1009.5
20260503221007 25 280 20.9 25.7 0.00 0.00 0.00 17 1009.6
20260503220503 23 256 8.0 14.5 0.00 0.00 0.00 18 1009.5
20260503215959 23 286 12.9 14.5 0.00 0.00 0.00 17 1009.5
20260503215457 23 255 16.1 17.7 0.00 0.00 0.00 18 1009.4
20260503214954 24 256 17.7 17.7 0.00 0.00 0.00 17 1009.8
20260503214452 23 229 4.8 4.8 0.00 0.00 0.00 18 1009.8
20260503213949 25 290 11.3 12.9 0.00 0.00 0.00 17 1010.0
20260503213447 24 323 9.7 11.3 0.00 0.00 0.00 18 1009.9
20260503212943 23 287 9.7 11.3 0.00 0.00 0.00 17 1010.1
20260503212441 23 260 9.7 12.9 0.00 0.00 0.00 18 1010.2
20260503211938 23 297 14.5 16.1 0.00 0.00 0.00 18 1010.2
20260503211435 23 281 14.5 16.1 0.00 0.00 0.00 18 1010.4
20260503210930 23 271 14.5 17.7 0.00 0.00 0.00 18 1010.5
20260503210427 23 262 9.7 12.9 0.00 0.00 0.00 19 1010.4
20260503205922 23 300 9.7 11.3 0.00 0.00 0.00 18 1010.5
20260503205420 23 286 11.3 14.5 0.00 0.00 0.00 17 1010.7
20260503204915 23 298 20.9 22.5 0.00 0.00 0.00 18 1010.6
20260503204413 23 271 8.0 12.9 0.00 0.00 0.00 19 1010.9
20260503203910 23 244 8.0 11.3 0.00 0.00 0.00 18 1011.1
20260503203407 23 246 14.5 20.9 0.00 0.00 0.00 18 1011.0
20260503202904 22 284 17.7 20.9 0.00 0.00 0.00 18 1011.3
20260503202402 22 255 19.3 20.9 0.00 0.00 0.00 18 1011.2
20260503201900 23 273 14.5 16.1 0.00 0.00 0.00 18 1011.2
20260503201357 22 262 11.3 14.5 0.00 0.00 0.00 19 1011.2
20260503200855 22 237 14.5 16.1 0.00 0.00 0.00 19 1011.2
20260503200350 22 253 9.7 12.9 0.00 0.00 0.00 19 1011.2
20260503195848 22 298 14.5 17.7 0.00 0.00 0.00 19 1011.5
20260503195344 22 247 9.7 11.3 0.00 0.00 0.00 20 1011.5
20260503194841 22 238 19.3 22.5 0.00 0.00 0.00 19 1011.6
20260503194337 22 310 12.9 14.5 0.00 0.00 0.00 20 1011.6
20260503193834 22 272 17.7 20.9 0.00 0.00 0.00 20 1011.6
20260503193330 22 293 14.5 16.1 0.00 0.00 0.00 20 1011.7
20260503192826 22 259 4.8 4.8 0.00 0.00 0.00 21 1011.8
20260503192321 22 248 17.7 20.9 0.00 0.00 0.00 21 1011.8
20260503191818 22 253 8.0 9.7 0.00 0.00 0.00 21 1011.8
20260503191315 22 248 11.3 14.5 0.00 0.00 0.00 22 1012.2
20260503190812 22 243 6.4 6.4 0.00 0.00 0.00 23 1011.9
20260503190309 22 254 14.5 17.7 0.00 0.00 0.00 21 1011.9
20260503185806 21 277 19.3 20.9 0.00 0.00 0.00 22 1012.2
20260503185301 22 261 17.7 24.1 0.00 0.00 0.00 23 1012.2
20260503184801 21 246 9.7 14.5 0.00 0.00 0.00 24 1012.4
20260503184258 21 271 9.7 11.3 0.00 0.00 0.00 23 1012.5
20260503183754 21 253 8.0 9.7 0.00 0.00 0.00 23 1012.5
20260503183252 21 245 9.7 11.3 0.00 0.00 0.00 25 1012.6
20260503182749 21 259 14.5 16.1 0.00 0.00 0.00 24 1012.9
20260503182248 21 296 16.1 22.5 0.00 0.00 0.00 25 1012.9
20260503181744 21 225 6.4 6.4 0.00 0.00 0.00 24 1012.9
20260503181241 21 280 8.0 9.7 0.00 0.00 0.00 25 1012.9
20260503180738 20 279 9.7 11.3 0.00 0.00 0.00 24 1013.0
20260503180236 20 309 16.1 17.7 0.00 0.00 0.00 24 1013.0
20260503175732 21 289 14.5 20.9 0.00 0.00 0.00 25 1013.0
20260503175230 21 242 11.3 14.5 0.00 0.00 0.00 24 1013.0
20260503174726 21 297 12.9 14.5 0.00 0.00 0.00 25 1013.4